Flag for Germany Weather past 2 weeks in Leutkirch im Allgäu, Baden-Württemberg, Germany

Now
54 °F

Overcast.


Feels Like: 54 °F
Forecast: 53 / 78 °F
Wind: 2 mph from Southeast

Location: Kempten

Current Time: Aug 1, 2015 at 2:05:04 AM

Latest Report: Aug 1, 2015 at 1:00 AM


Visibility: 17 mi

Pressure: 29.94 "Hg (27.68 "Hg at 656m altitude)

Humidity: 88%

Dew point: 50 °F

Location of Leutkirch im AllgäuLocation

Historic Weather in Leutkirch im Allgäu — Graph

°F

Leutkirch im Allgäu temperature yesterday

Maximum temperature yesterday: 71 °F (at 4:00 PM)
Minimum temperature yesterday: 44 °F (at 7:00 AM)
Average temperature yesterday: 60 °F

Past Weeks' High & Low Weather Summary

 TemperatureHumidityPressure
High90 °F (Jul 17, 3:00 PM)98% (Jul 30, 1:00 AM)30.13 "Hg (Jul 30, 1:00 AM)
Low44 °F (Jul 31, 7:00 AM)24% (Jul 17, 3:00 PM)29.64 "Hg (Jul 24, 6:00 PM)
Average67 °F67%29.92 "Hg
* Reported Jul 17 1:00 AM — Aug 1 1:00 AM, Leutkirch im Allgäu, Weather by CustomWeather, © 2015

Note: Actual official high and low records may vary slightly from our data, if they occured in-between our weather recording intervals... More about our weather records

Advertising

Leutkirch im Allgäu weather history for previous 24 hours

 ConditionsComfort  
Time TempWeatherWind HumidityBarometerVisibility
1:00 AM
Sat, Aug 1
54 °FOvercast.2 mph88%29.94 "Hg17 mi
12:00 AM56 °FPassing clouds.1 mph77%29.92 "Hg22 mi
11:00 PM
Fri, Jul 31
59 °FPassing clouds.1 mph68%29.91 "Hg25 mi
10:00 PM64 °FPassing clouds.2 mph55%29.90 "Hg25 mi
9:00 PM65 °FPassing clouds.1 mph53%29.89 "Hg31 mi
8:00 PM68 °FSunny.2 mph47%29.88 "Hg28 mi
7:00 PM71 °FSunny.3 mph42%29.86 "Hg25 mi
6:00 PM71 °FSunny.3 mph38%29.87 "Hg19 mi
4:00 PM71 °FSunny.3 mph38%29.89 "Hg8 mi
3:00 PM71 °FSunny.5 mph40%29.91 "Hg19 mi
2:00 PM69 °FSunny.3 mph44%29.92 "Hg10 mi
1:00 PM67 °FSunny.5 mph43%29.96 "Hg11 mi
12:00 PM66 °FSunny.3 mph44%29.98 "Hg13 mi
10:00 AM62 °FSunny.2 mph54%30.03 "Hg16 mi
9:00 AM57 °FSunny.1 mph65%30.05 "Hg19 mi
8:00 AM50 °FSunny.1 mph79%30.09 "Hg15 mi
7:00 AM44 °FSunny.2 mph97%30.12 "Hg9 mi
4:00 AM47 °FPassing clouds.1 mph95%30.11 "Hg12 mi
3:00 AM47 °FPassing clouds.2 mph96%30.11 "Hg9 mi
2:00 AM49 °FPassing clouds.2 mph94%30.09 "Hg14 mi
Weather by CustomWeather, © 2015

See weather overviewHow to use our weather pages